Actual water levels and discharges of Morava river

Lanžhot

Date and time (UTC) H (cm) Q (m3/s)
29. 9. 2020 07:10 116 67
29. 9. 2020 07:00 116 67
29. 9. 2020 06:00 117 68
29. 9. 2020 05:00 118 68
29. 9. 2020 04:00 118 68
29. 9. 2020 03:00 119 69
29. 9. 2020 02:00 119 69
29. 9. 2020 01:00 120 70
29. 9. 2020 00:00 120 70
28. 9. 2020 23:00 120 70
28. 9. 2020 22:00 119 69
28. 9. 2020 21:00 120 70
28. 9. 2020 20:00 120 70
28. 9. 2020 19:00 121 71

H - water level, Q - discharge

Strážnice

Date and time (UTC) H (cm) Q (m3/s)
29. 9. 2020 08:00 178 52.6
29. 9. 2020 07:00 191 59
29. 9. 2020 06:00 192 60
29. 9. 2020 05:00 194 61
29. 9. 2020 04:00 196 62
29. 9. 2020 03:00 197 62
29. 9. 2020 02:00 199 63
29. 9. 2020 01:00 201 64
29. 9. 2020 00:00 203 65
28. 9. 2020 23:00 204 66
28. 9. 2020 22:00 205 66
28. 9. 2020 21:00 206 67
28. 9. 2020 20:00 207 67

H - water level, Q - discharge
more information

Spytihněv

Date and time (UTC) H (cm) Q (m3/s)
29. 9. 2020 08:00 160 56.8
29. 9. 2020 07:00 157 55
29. 9. 2020 06:00 158 55
29. 9. 2020 05:00 160 57
29. 9. 2020 04:00 159 56
29. 9. 2020 03:00 160 57
29. 9. 2020 02:00 161 58
29. 9. 2020 01:00 159 56
29. 9. 2020 00:00 166 61
28. 9. 2020 23:00 164 60
28. 9. 2020 22:00 158 55
28. 9. 2020 21:00 168 62
28. 9. 2020 20:00 170 64

H - water level, Q - discharge

Kroměříž

Date and time (UTC) H (cm) Q (m3/s)
29. 9. 2020 08:00 180 50.8
29. 9. 2020 07:00 180 51
29. 9. 2020 06:00 180 51
29. 9. 2020 05:00 180 51
29. 9. 2020 04:00 180 51
29. 9. 2020 03:00 181 52
29. 9. 2020 02:00 181 52
29. 9. 2020 01:00 182 52
29. 9. 2020 00:00 183 53
28. 9. 2020 23:00 184 54
28. 9. 2020 22:00 185 55
28. 9. 2020 21:00 186 56
28. 9. 2020 20:00 185 55

H - water level, Q - discharge
more information

Olomouc-Nové Sady tok

Date and time (UTC) H (cm) Q (m3/s)
29. 9. 2020 08:00 130 23.3
29. 9. 2020 07:00 129 23
29. 9. 2020 06:00 128 23
29. 9. 2020 05:00 127 22
29. 9. 2020 04:00 126 22
29. 9. 2020 03:00 126 22
29. 9. 2020 02:00 126 22
29. 9. 2020 01:00 126 22
29. 9. 2020 00:00 126 22
28. 9. 2020 23:00 126 22
28. 9. 2020 22:00 126 22
28. 9. 2020 21:00 126 22
28. 9. 2020 20:00 127 22

H - water level, Q - discharge

Moravičany

Date and time (UTC) H (cm) Q (m3/s)
29. 9. 2020 08:00 91 10.2
29. 9. 2020 07:00 91 10
29. 9. 2020 06:00 91 10
29. 9. 2020 05:00 91 10
29. 9. 2020 04:00 91 10
29. 9. 2020 03:00 91 10
29. 9. 2020 02:00 90 10
29. 9. 2020 01:00 90 10
29. 9. 2020 00:00 90 10
28. 9. 2020 23:00 90 10
28. 9. 2020 22:00 90 10
28. 9. 2020 21:00 91 10
28. 9. 2020 20:00 90 10

H - water level, Q - discharge
Source data
Labe Basin Vltava Basin Povodí Moravy ČHMÚ